Weather History for De Kooy, Netherlands

Change the Weather History Date:

Wednesday, October 30, 2013

  Actual Average Record
Temperature  
Mean Temperature 52 °F -  
Max Temperature 56 °F 49 °F 68 °F (2005)
Min Temperature 48 °F 40 °F 35 °F (1997)
Degree Days  
Heating Degree Days 13    
Growing Degree Days 2 (Base 50)    
Moisture  
Dew Point 44 °F    
Average Humidity 74    
Maximum Humidity 94    
Minimum Humidity 58    
Precipitation  
Precipitation 0.00 in 0.12 in - ()
Sea Level Pressure  
Sea Level Pressure 30.07 in    
Wind  
Wind Speed 16 mph ()    
Max Wind Speed 22 mph    
Max Gust Speed -    
Visibility 6.7 miles    
Events      
Averages and records for this station are not official NWS values.
T = Trace of Precipitation, MM = Missing Value Source: Averaged Metar Reports

Daily Weather History Graph

Daily Weather History Graph

Search for Another Location

Airport:

Trip Planner

Search our weather history database for the weather conditions in past years. The results will help you decide how hot, cold, wet, or windy it might be!

Date:

Astronomy

Oct. 30, 2013 Rise Set
Actual Time 7:34 AM CET 5:13 PM CET
Civil Twilight 6:58 AM CET 5:49 PM CET
Nautical Twilight 6:17 AM CET 6:30 PM CET
Astronomical Twilight 5:37 AM CET 7:10 PM CET
Moon 2:34 AM CET (10/30) 3:19 PM CET (10/30)
Length of Visible Light 10h 51m
Length of Day
9h 38m
Waning Crescent, 19% of the Moon is Illuminated
Oct 30
Waning Crescent
Nov 3
New
Nov 10
First Quarter
Nov 17
Full
Nov 25
Last Quarter

Hourly Weather History & Observations

Time (CET) Temp. Dew Point Humidity Pressure Visibility Wind Dir Wind Speed Gust Speed Precip Events Conditions
12:25 AM 51.8 °F 42.8 °F 71% 29.92 in 6.2 mi West 19.6 mph - N/A   Unknown
12:55 AM 51.8 °F 42.8 °F 71% 29.92 in 6.2 mi West 18.4 mph - N/A   Partly Cloudy
1:00 AM 51 °F 42 °F 63% 29.94 in 19 mi West 17.9 mph - -   Partly Cloudy
1:25 AM 51.8 °F 42.8 °F 71% 29.92 in 6.2 mi West 18.4 mph - N/A   Scattered Clouds
1:41 AM 50.0 °F 42.8 °F 76% 29.92 in 6.2 mi West 18.4 mph - N/A   Scattered Clouds
1:46 AM 51.8 °F 42.8 °F 71% 29.92 in 6.2 mi West 18.4 mph - N/A   Partly Cloudy
1:55 AM 51.8 °F 42.8 °F 71% 29.92 in 6.2 mi West 18.4 mph - N/A   Partly Cloudy
2:25 AM 51.8 °F 42.8 °F 71% 29.95 in 6.2 mi West 17.3 mph - N/A   Mostly Cloudy
2:55 AM 51.8 °F 42.8 °F 71% 29.95 in 6.2 mi West 19.6 mph - N/A   Partly Cloudy
3:25 AM 51.8 °F 42.8 °F 71% 29.95 in 6.2 mi West 17.3 mph - N/A   Partly Cloudy
3:55 AM 51.8 °F 42.8 °F 71% 29.95 in 6.2 mi West 17.3 mph - N/A   Mostly Cloudy
4:00 AM 51 °F 43 °F 66% 29.97 in 19 mi West 17.9 mph - -   Scattered Clouds
4:25 AM 50.0 °F 42.8 °F 76% 29.98 in 6.2 mi West 17.3 mph - N/A   Scattered Clouds
4:29 AM 51.8 °F 42.8 °F 71% 29.98 in 6.2 mi West 16.1 mph - N/A   Scattered Clouds
4:34 AM 50.0 °F 42.8 °F 76% 29.98 in 6.2 mi West 16.1 mph - N/A   Mostly Cloudy
4:55 AM 51.8 °F 44.6 °F 76% 29.98 in 6.2 mi West 17.3 mph - N/A   Mostly Cloudy
4:59 AM 51.8 °F 44.6 °F 76% 29.98 in 6.2 mi West 16.1 mph - N/A   Scattered Clouds
5:25 AM 51.8 °F 44.6 °F 76% 29.98 in 6.2 mi West 15.0 mph - N/A   Mostly Cloudy
5:27 AM 51.8 °F 42.8 °F 71% 29.98 in 6.2 mi West 16.1 mph - N/A   Mostly Cloudy
5:36 AM 51.8 °F 44.6 °F 76% 29.98 in 6.2 mi West 17.3 mph - N/A   Scattered Clouds
5:40 AM 51.8 °F 44.6 °F 76% 29.98 in 6.2 mi West 16.1 mph - N/A   Mostly Cloudy
5:49 AM 50.0 °F 42.8 °F 76% 29.98 in 6.2 mi West 16.1 mph - N/A   Partly Cloudy
5:55 AM 50.0 °F 42.8 °F 76% 29.98 in 6.2 mi West 16.1 mph - N/A   Partly Cloudy
6:01 AM 50.0 °F 42.8 °F 76% 29.98 in 6.2 mi West 15.0 mph - N/A   Scattered Clouds
6:05 AM 51.8 °F 42.8 °F 71% 30.01 in 6.2 mi West 15.0 mph - N/A   Mostly Cloudy
6:18 AM 50.0 °F 42.8 °F 76% 30.01 in 6.2 mi West 16.1 mph - N/A   Scattered Clouds
6:25 AM 51.8 °F 42.8 °F 71% 30.01 in 6.2 mi West 16.1 mph - N/A   Partly Cloudy
6:43 AM 51.8 °F 44.6 °F 76% 30.01 in 6.2 mi West 16.1 mph - N/A   Mostly Cloudy
6:55 AM 50.0 °F 42.8 °F 76% 30.01 in 6.2 mi West 17.3 mph - N/A   Scattered Clouds
7:00 AM 51 °F 43 °F 66% 30.03 in 22 mi West 15.7 mph - -   Partly Cloudy
7:25 AM 51.8 °F 42.8 °F 71% 30.01 in 6.2 mi West 15.0 mph - N/A   Partly Cloudy
7:38 AM 50.0 °F 42.8 °F 76% 30.04 in 6.2 mi West 16.1 mph - N/A   Scattered Clouds
7:43 AM 50.0 °F 44.6 °F 82% 30.04 in 6.2 mi West 17.3 mph - N/A   Partly Cloudy
7:55 AM 50.0 °F 42.8 °F 76% 30.04 in 6.2 mi West 16.1 mph - N/A   Scattered Clouds
7:57 AM 51.8 °F 42.8 °F 71% 30.04 in 6.2 mi West 16.1 mph - N/A   Scattered Clouds
8:01 AM 51.8 °F 42.8 °F 71% 30.04 in 6.2 mi West 17.3 mph - N/A   Partly Cloudy
8:25 AM 51.8 °F 42.8 °F 71% 30.04 in 6.2 mi West 15.0 mph - N/A   Partly Cloudy
8:55 AM 51.8 °F 44.6 °F 76% 30.06 in 6.2 mi West 16.1 mph - N/A   Mostly Cloudy
9:25 AM 51.8 °F 44.6 °F 76% 30.06 in 6.2 mi West 18.4 mph - N/A   Scattered Clouds
9:31 AM 51.8 °F 44.6 °F 76% 30.09 in 6.2 mi West 18.4 mph - N/A   Scattered Clouds
9:45 AM 53.6 °F 44.6 °F 72% 30.09 in 6.2 mi West 19.6 mph - N/A   Scattered Clouds
9:49 AM 51.8 °F 42.8 °F 71% 30.09 in 6.2 mi West 18.4 mph - N/A   Partly Cloudy
9:55 AM 53.6 °F 44.6 °F 72% 30.09 in 6.2 mi West 17.3 mph - N/A   Scattered Clouds
10:00 AM 53 °F 44 °F 62% 30.10 in 16 mi West 17.9 mph - -   Scattered Clouds
10:02 AM 51.8 °F 44.6 °F 76% 30.09 in 6.2 mi West 18.4 mph - N/A   Scattered Clouds
10:25 AM 53.6 °F 42.8 °F 67% 30.09 in 6.2 mi West 18.4 mph - N/A   Partly Cloudy
10:55 AM 53.6 °F 44.6 °F 72% 30.09 in 6.2 mi West 19.6 mph - N/A   Partly Cloudy
11:25 AM 53.6 °F 44.6 °F 72% 30.12 in 6.2 mi West 18.4 mph - N/A   Partly Cloudy
11:53 AM 51.8 °F 44.6 °F 76% 30.12 in 6.2 mi West 16.1 mph - N/A   Partly Cloudy
11:55 AM 53.6 °F 44.6 °F 72% 30.12 in 6.2 mi West 17.3 mph - N/A   Partly Cloudy
12:25 PM 53.6 °F 44.6 °F 72% 30.12 in 6.2 mi West 18.4 mph - N/A   Scattered Clouds
12:27 PM 53.6 °F 44.6 °F 72% 30.12 in 6.2 mi WSW 17.3 mph - N/A   Scattered Clouds
12:55 PM 55.4 °F 44.6 °F 67% 30.12 in 6.2 mi WSW 17.3 mph - N/A   Mostly Cloudy
1:00 PM 55 °F 44 °F 58% 30.14 in 22 mi West 20.1 mph - -   Partly Cloudy
1:25 PM 55.4 °F 44.6 °F 67% 30.12 in 6.2 mi WSW 18.4 mph - N/A   Scattered Clouds
1:48 PM 55.4 °F 44.6 °F 67% 30.12 in 6.2 mi WSW 19.6 mph - N/A   Scattered Clouds
1:55 PM 55.4 °F 44.6 °F 67% 30.12 in 6.2 mi WSW 20.7 mph - N/A   Scattered Clouds
2:25 PM 53.6 °F 42.8 °F 67% 30.12 in 6.2 mi WSW 21.9 mph - N/A   Partly Cloudy
2:55 PM 53.6 °F 42.8 °F 67% 30.12 in 6.2 mi WSW 18.4 mph - N/A   Partly Cloudy
3:25 PM 53.6 °F 42.8 °F 67% 30.12 in 6.2 mi WSW 17.3 mph - N/A   Unknown
3:32 PM 53.6 °F 42.8 °F 67% 30.12 in 6.2 mi WSW 17.3 mph - N/A   Mostly Cloudy
3:55 PM 53.6 °F 42.8 °F 67% 30.12 in 6.2 mi WSW 16.1 mph - N/A   Scattered Clouds
4:00 PM 53 °F 42 °F 58% 30.14 in 22 mi WSW 15.7 mph - -   Partly Cloudy
4:25 PM 53.6 °F 41.0 °F 62% 30.12 in 6.2 mi WSW 16.1 mph - N/A   Unknown
4:55 PM 51.8 °F 41.0 °F 67% 30.12 in 6.2 mi SW 13.8 mph - N/A   Partly Cloudy
5:25 PM 51.8 °F 42.8 °F 71% 30.12 in 6.2 mi SW 13.8 mph - N/A   Scattered Clouds
5:55 PM 51.8 °F 41.0 °F 67% 30.15 in 6.2 mi SW 12.7 mph - N/A   Mostly Cloudy
6:25 PM 51.8 °F 41.0 °F 67% 30.15 in 6.2 mi SW 13.8 mph - N/A   Partly Cloudy
6:55 PM 51.8 °F 41.0 °F 67% 30.15 in 6.2 mi SW 12.7 mph - N/A   Partly Cloudy
7:00 PM 51 °F 42 °F 62% 30.16 in 25 mi SW 13.4 mph - -   Partly Cloudy
7:25 PM 51.8 °F 42.8 °F 71% 30.15 in 6.2 mi SW 11.5 mph - N/A   Partly Cloudy
7:55 PM 51.8 °F 42.8 °F 71% 30.15 in 6.2 mi SW 15.0 mph - N/A   Partly Cloudy
8:25 PM 51.8 °F 42.8 °F 71% 30.15 in 6.2 mi SW 15.0 mph - N/A   Partly Cloudy
8:55 PM 51.8 °F 44.6 °F 76% 30.15 in 6.2 mi SW 16.1 mph - N/A   Unknown
9:23 PM 51.8 °F 44.6 °F 76% 30.15 in 6.2 mi SSW 15.0 mph - N/A   Unknown
9:25 PM 51.8 °F 44.6 °F 76% 30.15 in 6.2 mi SW 15.0 mph - N/A   Unknown
9:55 PM 48.2 °F 44.6 °F 87% 30.15 in 6.2 mi South 10.4 mph - N/A   Partly Cloudy
9:57 PM 48.2 °F 44.6 °F 87% 30.15 in 6.2 mi South 10.4 mph - N/A   Scattered Clouds
9:59 PM 48.2 °F 44.6 °F 87% 30.15 in 6.2 mi South 10.4 mph - N/A   Mostly Cloudy
10:00 PM 48 °F 44 °F 80% 30.16 in 16 mi South 11.2 mph - -   Scattered Clouds
10:05 PM 48.2 °F 42.8 °F 82% 30.15 in 6.2 mi South 10.4 mph - N/A   Mostly Cloudy
10:25 PM 48.2 °F 44.6 °F 87% 30.15 in 6.2 mi South 10.4 mph - N/A   Mostly Cloudy
10:46 PM 50.0 °F 46.4 °F 87% 30.12 in 6.2 mi South 12.7 mph - N/A   Partly Cloudy
10:55 PM 50.0 °F 46.4 °F 87% 30.12 in 6.2 mi South 12.7 mph - N/A   Mostly Cloudy
10:57 PM 50.0 °F 46.4 °F 87% 30.12 in 6.2 mi South 12.7 mph - N/A   Mostly Cloudy
11:03 PM 50.0 °F 48.2 °F 94% 30.12 in 6.2 mi South 12.7 mph - N/A   Overcast
11:25 PM 50.0 °F 46.4 °F 87% 30.12 in 6.2 mi South 12.7 mph - N/A   Mostly Cloudy
11:27 PM 50.0 °F 46.4 °F 87% 30.12 in 6.2 mi South 12.7 mph - N/A   Mostly Cloudy
11:31 PM 50.0 °F 46.4 °F 87% 30.12 in 6.2 mi South 12.7 mph - N/A   Overcast
11:41 PM 50.0 °F 48.2 °F 94% 30.12 in 6.2 mi South 13.8 mph - N/A   Overcast
11:55 PM 51.8 °F 48.2 °F 88% 30.12 in 6.2 mi South 15.0 mph - N/A   Overcast
11:57 PM 50.0 °F 48.2 °F 94% 30.12 in 6.2 mi South 15.0 mph - N/A   Mostly Cloudy